This demonstration page uses our WeatherBlox Daily Observations layout. Learn more.

Left ArrowRight Arrow

41.86663, -103.66717

Hourly Observations for June 24, 2020

Temp ( °F °C ) Dew Point ( °F °C ) Humidity (%) Winds ( mph kmh ) Pressure ( in mb ) Visibility ( mi km ) Precip ( " mm )
12:53 am 00:53 Clear 63 17.2 51 10.6 65 65 ESE 9 15 29.92 1013 10 16 0.00 0.00
1:53 am 01:53 Clear 62 16.7 52 11.1 70 70 E 8 13 29.91 1013 10 16 0.00 0.00
2:53 am 02:53 Clear 60 15.6 53 11.7 78 78 E 10 17 29.90 1012 10 16 0.00 0.00
3:53 am 03:53 Clear 60 15.6 54 12.2 80 80 ENE 7 11 29.89 1012 10 16 0.00 0.00
4:53 am 04:53 Clear 59 15 54 12.2 83 83 ESE 8 13 29.88 1012 10 16 0.00 0.00
5:53 am 05:53 Sunny 58 14.4 55 12.8 90 90 ESE 7 11 29.88 1012 10 16 0.00 0.00
6:53 am 06:53 Sunny 61 16.1 56 13.3 84 84 SE 7 11 29.87 1012 10 16 0.00 0.00
7:53 am 07:53 Sunny 66 18.9 56 13.3 70 70 SSE 5 7 29.86 1011 10 16 0.00 0.00
8:53 am 08:53 Sunny 72 22.2 56 13.3 57 57 E 3 6 29.85 1011 10 16 0.00 0.00
9:53 am 09:53 Sunny 77 25 57 13.9 50 50 Calm 29.85 1011 10 16 0.00 0.00
10:53 am 10:53 Sunny 82 27.8 56 13.3 41 41 VRB 3 6 29.84 1011 10 16 0.00 0.00
11:53 am 11:53 Sunny 86 30 54 12.2 33 33 Calm 29.82 1010 10 16 0.00 0.00
12:53 pm 12:53 Sunny 90 32.2 51 10.6 26 26 Calm 29.80 1009 10 16 0.00 0.00
1:53 pm 13:53 Sunny 93 33.9 46 7.8 20 20 VRB 3 6 29.78 1008 10 16 0.00 0.00
2:53 pm 14:53 Sunny 93 33.9 38 3.3 14 14 Calm 29.77 1008 10 16 0.00 0.00
3:53 pm 15:53 Sunny 94 34.4 36 2.2 13 13 VRB 5 7 29.75 1007 10 16 0.00 0.00
4:53 pm 16:53 Sunny 96 35.6 39 3.9 14 14 VRB 5 7 29.72 1006 10 16 0.00 0.00
5:53 pm 17:53 Sunny 93 33.9 40 4.4 16 16 E 6 9 29.71 1006 10 16 0.00 0.00
6:53 pm 18:53 Sunny 92 33.3 47 8.3 21 21 ESE 10 17 29.70 1006 10 16 0.00 0.00
7:53 pm 19:53 Sunny 87 30.6 52 11.1 30 30 SE 9 15 29.70 1006 10 16 0.00 0.00
8:53 pm 20:53 Clear 82 27.8 55 12.8 40 40 SE 9 15 29.71 1006 10 16 0.00 0.00
9:53 pm 21:53 Clear 78 25.6 57 13.9 48 48 ESE 9 15 29.73 1007 10 16 0.00 0.00
10:53 pm 22:53 Clear 76 24.4 56 13.3 50 50 ESE 10 17 29.73 1007 10 16 0.00 0.00
11:34 pm 23:34 Mostly Clear 74 23.3 57 13.9 56 56 ESE 7 11 29.67 1005 10 16 0.00 0.00
11:53 pm 23:53 Mostly Clear 74 23.3 58 14.4 57 57 ESE 9 15 29.75 1007 10 16 0.00 0.00

Powered by AerisWeather